Location: American Canyon
(38.1966°N, 122.1514°W)
Time: 13:30:59
(UTC+00:00)

Cosmos 1833 Rocket - Pass Details

Date: 29 October 2020
Orbit: 832 x 840 km, 71.0° (Epoch: 01 December)

Event Time Altitude Azimuth Distance (km) Brightness Sun altitude
Exits shadow 13:29:20 16° 299° (WNW) 2,091 4.2 -12.9°
Maximum altitude 13:30:05 16° 308° (NW) 2,070 4.2 -12.7°
Drops below altitude 10° 13:33:27 10° 345° (NNW) 2,462 4.9 -12.1°
Sets 13:36:58 0° 7° (N) 3,401 5.8 -11.4°
